H1 CPF 2 NER 2024 11 9 9 314 01 glonass129 H2 1106402 9129 37868 2024 11 9 0 0 0 2024 11 12 23 45 0 900 1 1 0 0 0 1 H9 10 0 60623 0.00000 0 19564007.988 11116869.411 -12036038.466 10 0 60623 900.00000 0 20637584.731 11888042.216 -9180250.264 10 0 60623 1800.00000 0 21480584.167 12353611.893 -6146464.254 10 0 60623 2700.00000 0 22042122.204 12540348.789 -2993576.600 10 0 60623 3600.00000 0 22279763.496 12485364.963 217287.422 10 0 60623 4500.00000 0 22161386.403 12234308.893 3423953.212 10 0 60623 5400.00000 0 21666632.524 11839216.803 6564391.395 10 0 60623 6300.00000 0 20787881.431 11356111.848 9577904.719 10 0 60623 7200.00000 0 19530710.983 10842452.338 12406285.327 10 0 60623 8100.00000 0 17913824.821 10354535.799 14994921.419 10 0 60623 9000.00000 0 15968450.365 9944966.970 17293833.505 10 0 60623 9900.00000 0 13737232.115 9660294.810 19258621.933 10 0 60623 10800.00000 0 11272665.373 9538916.330 20851309.131 10 0 60623 11700.00000 0 8635133.922 9609333.996 22041061.904 10 0 60623 12600.00000 0 5890631.031 9888838.986 22804781.123 10 0 60623 13500.00000 0 3108255.872 10382675.310 23127548.325 10 0 60623 14400.00000 0 357586.466 11083720.311 23002920.941 10 0 60623 15300.00000 0 -2293964.506 11972696.236 22433070.174 10 0 60623 16200.00000 0 -4783703.696 13018905.923 21428758.017 10 0 60623 17100.00000 0 -7056016.785 14181464.277 20009152.353 10 0 60623 18000.00000 0 -9064437.002 15410976.587 18201481.816 10 0 60623 18900.00000 0 -10773336.954 16651596.021 16040534.843 10 0 60623 19800.00000 0 -12159173.091 17843376.266 13568010.221 10 0 60623 20700.00000 0 -13211230.037 18924822.230 10831729.518 10 0 60623 21600.00000 0 -13931832.497 19835532.415 7884724.688 10 0 60623 22500.00000 0 -14336014.542 20518821.724 4784217.141 10 0 60623 23400.00000 0 -14450658.898 20924213.157 1590507.338 10 0 60623 24300.00000 0 -14313141.639 21009691.494 -1634203.570 10 0 60623 25200.00000 0 -13969539.059 20743621.359 -4827036.494 10 0 60623 26100.00000 0 -13472472.813 20106245.839 -7925676.419 10 0 60623 27000.00000 0 -12878685.453 19090699.468 -10869607.697 10 0 60623 27900.00000 0 -12246450.599 17703490.113 -13601316.431 10 0 60623 28800.00000 0 -11632929.489 15964427.246 -16067434.292 10 0 60623 29700.00000 0 -11091588.194 13905998.069 -18219799.348 10 0 60623 30600.00000 0 -10669787.172 11572216.937 -20016411.432 10 0 60623 31500.00000 0 -10406647.244 9016996.377 -21422262.027 10 0 60623 32400.00000 0 -10331283.854 6302108.599 -22410021.654 10 0 60623 33300.00000 0 -10461485.237 3494823.859 -22960571.091 10 0 60623 34200.00000 0 -10802890.604 665325.670 -23063366.344 10 0 60623 35100.00000 0 -11348702.639 -2115988.047 -22716630.993 10 0 60623 36000.00000 0 -12079945.441 -4781204.447 -21927373.333 10 0 60623 36900.00000 0 -12966255.577 -7267482.994 -20711229.344 10 0 60623 37800.00000 0 -13967171.195 -9519422.958 -19092136.132 10 0 60623 38700.00000 0 -15033863.095 -11491113.589 -17101843.778 10 0 60623 39600.00000 0 -16111233.190 -13147783.279 -14779276.665 10 0 60623 40500.00000 0 -17140290.594 -14466981.366 -12169758.114 10 0 60623 41400.00000 0 -18060704.361 -15439246.172 -9324114.634 10 0 60623 42300.00000 0 -18813424.944 -16068234.548 -6297678.205 10 0 60623 43200.00000 0 -19343264.085 -16370310.809 -3149206.691 10 0 60623 44100.00000 0 -19601325.179 -16373615.363 60256.320 10 0 60623 45000.00000 0 -19547182.798 -16116654.757 3268560.002 10 0 60623 45900.00000 0 -19150721.024 -15646474.403 6413640.634 10 0 60623 46800.00000 0 -18393554.661 -15016492.067 9434709.345 10 0 60623 47700.00000 0 -17269974.914 -14284083.705 12273411.279 10 0 60623 48600.00000 0 -15787380.812 -13508022.877 14874935.129 10 0 60623 49500.00000 0 -13966178.716 -12745880.473 17189053.200 10 0 60623 50400.00000 0 -11839153.980 -12051492.602 19171073.600 10 0 60623 51300.00000 0 -9450340.084 -11472601.370 20782687.923 10 0 60623 52200.00000 0 -6853430.792 -11048765.925 21992699.684 10 0 60623 53100.00000 0 -4109799.266 -10809630.035 22777620.738 10 0 60623 54000.00000 0 -1286203.812 -10773617.971 23122125.088 10 0 60623 54900.00000 0 1547727.417 -10947113.103 23019351.696 10 0 60623 55800.00000 0 4322131.273 -11324154.173 22471050.202 10 0 60623 56700.00000 0 6969557.410 -11886663.211 21487565.880 10 0 60623 57600.00000 0 9427521.402 -12605197.402 20087662.686 10 0 60623 58500.00000 0 11640858.742 -13440195.682 18298185.904 10 0 60623 59400.00000 0 13563782.709 -14343670.194 16153568.663 10 0 60623 60300.00000 0 15161560.540 -15261273.880 13695189.542 10 0 60623 61200.00000 0 16411737.382 -16134659.162 10970591.434 10 0 60623 62100.00000 0 17304855.770 -16904029.648 8032574.882 10 0 60623 63000.00000 0 17844639.073 -17510777.666 4938182.004 10 0 60623 63900.00000 0 18047629.759 -17900095.842 1747589.974 10 0 60623 64800.00000 0 17942296.454 -18023450.943 -1477064.559 10 0 60623 65700.00000 0 17567646.621 -17840813.286 -4672906.623 10 0 60623 66600.00000 0 16971403.226 -17322544.736 -7777564.585 10 0 60623 67500.00000 0 16207822.933 -16450862.490 -10730406.380 10 0 60623 68400.00000 0 15335249.244 -15220813.855 -13473744.127 10 0 60623 69300.00000 0 14413505.851 -13640718.241 -15953981.399 10 0 60623 70200.00000 0 13501242.546 -11732055.658 -18122678.680 10 0 60623 71100.00000 0 12653348.199 -9528805.027 -19937514.411 10 0 60623 72000.00000 0 11918542.259 -7076259.488 -21363121.458 10 0 60623 72900.00000 0 11337248.265 -4429368.519 -22371781.831 10 0 60623 73800.00000 0 10939840.274 -1650676.936 -22943965.832 10 0 60623 74700.00000 0 10745336.655 1192051.989 -23068705.336 10 0 60623 75600.00000 0 10760596.029 4028428.882 -22743794.681 10 0 60623 76500.00000 0 10980048.237 6788136.955 -21975816.350 10 0 60623 77400.00000 0 11385970.125 9403623.847 -20779992.350 10 0 60623 78300.00000 0 11949292.542 11812674.355 -19179865.725 10 0 60623 79200.00000 0 12630902.414 13960757.423 -17206819.996 10 0 60623 80100.00000 0 13383382.905 15803050.798 -14899447.446 10 0 60623 81000.00000 0 14153116.440 17306060.879 -12302779.975 10 0 60623 81900.00000 0 14882660.473 18448772.637 -9467398.727 10 0 60623 82800.00000 0 15513294.855 19223284.497 -6448440.818 10 0 60623 83700.00000 0 15987633.030 19634904.704 -3304523.210 10 0 60623 84600.00000 0 16252187.137 19701708.250 -96604.987 10 0 60623 85500.00000 0 16259779.594 19453575.687 3113189.777 10 0 60624 0.00000 0 15971700.651 18930756.526 6262765.773 10 0 60624 900.00000 0 15359522.131 18182018.808 9291246.102 10 0 60624 1800.00000 0 14406492.758 17262464.198 12140131.565 10 0 60624 2700.00000 0 13108457.009 16231099.457 14754414.149 10 0 60624 3600.00000 0 11474259.824 15148266.273 17083620.577 10 0 60624 4500.00000 0 9525620.204 14073035.818 19082769.131 10 0 60624 5400.00000 0 7296478.307 13060675.698 20713222.750 10 0 60624 6300.00000 0 4831841.933 12160293.669 21943423.569 10 0 60624 7200.00000 0 2186178.391 11412755.108 22749496.025 10 0 60624 8100.00000 0 -578583.903 10848960.061 23115707.825 10 0 60624 9000.00000 0 -3395364.066 10488551.111 23034780.286 10 0 60624 9900.00000 0 -6194454.824 10339105.980 22508041.834 10 0 60624 10800.00000 0 -8906164.128 10395849.184 21545420.872 10 0 60624 11700.00000 0 -11463465.286 10641896.015 20165276.739 10 0 60624 12600.00000 0 -13804547.487 11049020.382 18394070.137 10 0 60624 13500.00000 0 -15875161.950 11578916.353 16265877.180 10 0 60624 14400.00000 0 -17630666.497 12184902.553 13821754.091 10 0 60624 15300.00000 0 -19037682.905 12813999.641 11108962.615 10 0 60624 16200.00000 0 -20075296.843 13409294.787 8180069.170 10 0 60624 17100.00000 0 -20735748.693 13912494.138 5091933.733 10 0 60624 18000.00000 0 -21024584.618 14266555.347 1904607.267 10 0 60624 18900.00000 0 -20960259.950 14418287.871 -1319841.011 10 0 60624 19800.00000 0 -20573210.343 14320809.178 -4518543.152 10 0 60624 20700.00000 0 -19904429.139 13935750.459 -7629073.757 10 0 60624 21600.00000 0 -19003610.956 13235115.564 -10590687.110 10 0 60624 22500.00000 0 -17926940.595 12202711.495 -13345523.968 10 0 60624 23400.00000 0 -16734621.997 10835087.129 -15839762.237 10 0 60624 24300.00000 0 -15488253.499 9141938.038 -18024686.997 10 0 60624 25200.00000 0 -14248162.294 7145958.471 -19857657.155 10 0 60624 26100.00000 0 -13070812.745 4882145.590 -21302948.472 10 0 60624 27000.00000 0 -12006399.705 2396584.721 -22332455.592 10 0 60624 27900.00000 0 -11096729.613 -255233.206 -22926239.113 10 0 60624 28800.00000 0 -10373479.308 -3010490.886 -23072907.185 10 0 60624 29700.00000 0 -9856905.765 -5801432.603 -22769824.946 10 0 60624 30600.00000 0 -9555060.174 -8557960.212 -22023148.776 10 0 60624 31500.00000 0 -9463537.873 -11210327.955 -20847686.101 10 0 60624 32400.00000 0 -9565772.541 -13691823.319 -19266584.998 10 0 60624 33300.00000 0 -9833859.845 -15941322.270 -17310861.262 10 0 60624 34200.00000 0 -10229873.315 -17905613.060 -15018773.695 10 0 60624 35100.00000 0 -10707614.596 -19541393.080 -12435061.235 10 0 60624 36000.00000 0 -11214722.245 -20816857.437 -9610057.996 10 0 60624 36900.00000 0 -11695048.574 -21712815.363 -6598704.483 10 0 60624 37800.00000 0 -12091203.285 -22223290.601 -3459474.932 10 0 60624 38700.00000 0 -12347156.249 -22355583.543 -253242.023 10 0 60624 39600.00000 0 -12410789.856 -22129795.290 2957898.913 10 0 60624 40500.00000 0 -12236294.031 -21577835.988 6111823.653 10 0 60624 41400.00000 0 -11786304.045 -20741960.900 9147568.400 10 0 60624 42300.00000 0 -11033692.278 -19672896.785 12006492.568 10 0 60624 43200.00000 0 -9962939.700 -18427637.565 14633393.941 10 0 60624 44100.00000 0 -8571030.259 -17067001.340 16977556.200 10 0 60624 45000.00000 0 -6867830.964 -15653050.111 18993710.310 10 0 60624 45900.00000 0 -4875941.423 -14246478.693 20642892.960 10 0 60624 46800.00000 0 -2630018.016 -12904080.232 21893187.123 10 0 60624 47700.00000 0 -175599.129 -11676392.370 22720331.779 10 0 60624 48600.00000 0 2432522.060 -10605620.694 23108190.007 10 0 60624 49500.00000 0 5132312.477 -9723924.845 23049066.820 10 0 60624 50400.00000 0 7856821.120 -9052138.097 22543870.421 10 0 60624 51300.00000 0 10536714.812 -8598973.800 21602112.976 10 0 60624 52200.00000 0 13102925.290 -8360752.380 20241749.478 10 0 60624 53100.00000 0 15489299.962 -8321661.524 18488855.954 10 0 60624 54000.00000 0 17635147.744 -8454540.204 16377150.999 10 0 60624 54900.00000 0 19487574.790 -8722155.492 13947367.564 10 0 60624 55800.00000 0 21003512.645 -9078920.276 11246484.872 10 0 60624 56700.00000 0 22151353.274 -9472981.028 8326833.370 10 0 60624 57600.00000 0 22912121.164 -9848588.504 5245088.580 10 0 60624 58500.00000 0 23280131.503 -10148651.462 2061172.509 10 0 60624 59400.00000 0 23263104.969 -10317364.748 -1162916.165 10 0 60624 60300.00000 0 22881732.591 -10302799.088 -4364319.872 10 0 60624 61200.00000 0 22168707.789 -10059340.721 -7480562.932 10 0 60624 62100.00000 0 21167265.801 -9549874.825 -10450789.467 10 0 60624 63000.00000 0 19929292.228 -8747617.304 -13216972.247 10 0 60624 63900.00000 0 18513081.331 -7637514.420 -15725066.701 10 0 60624 64800.00000 0 16980840.127 -6217148.364 -17926085.427 10 0 60624 65700.00000 0 15396045.359 -4497108.300 -19777070.433 10 0 60624 66600.00000 0 13820766.780 -2500809.618 -21241942.667 10 0 60624 67500.00000 0 12313071.391 -263768.108 -22292211.341 10 0 60624 68400.00000 0 10924619.351 2167640.675 -22907528.875 10 0 60624 69300.00000 0 9698553.619 4737884.476 -23076080.815 10 0 60624 70200.00000 0 8667772.195 7384367.721 -22794803.787 10 0 60624 71100.00000 0 7853654.861 10039826.751 -22069428.330 10 0 60624 72000.00000 0 7265296.544 12634925.852 -20914347.126 10 0 60624 72900.00000 0 6899277.362 15100945.002 -19352312.724 10 0 60624 73800.00000 0 6739976.473 17372446.935 -17413972.244 10 0 60624 74700.00000 0 6760413.675 19389812.401 -15137249.689 10 0 60624 75600.00000 0 6923580.488 21101538.731 -12566589.352 10 0 60624 76500.00000 0 7184202.048 22466207.173 -9752076.285 10 0 60624 77400.00000 0 7490853.353 23454038.807 -6748452.025 10 0 60624 78300.00000 0 7788339.008 24047976.380 -3614045.440 10 0 60624 79200.00000 0 8020235.112 24244249.434 -409639.918 10 0 60624 80100.00000 0 8131485.751 24052401.702 2802700.995 10 0 60624 81000.00000 0 8070944.846 23494782.011 5960827.014 10 0 60624 81900.00000 0 7793756.982 22605522.047 9003691.126 10 0 60624 82800.00000 0 7263477.921 21429045.174 11872514.133 10 0 60624 83700.00000 0 6453846.704 20018169.459 14511902.522 10 0 60624 84600.00000 0 5350135.777 18431884.251 16870899.678 10 0 60624 85500.00000 0 3950023.067 16732892.561 18903951.787 10 0 60625 0.00000 0 2263949.620 14985020.748 20571771.452 10 0 60625 900.00000 0 314946.185 13250600.963 21842084.812 10 0 60625 1800.00000 0 -1862063.114 11587935.904 22690246.950 10 0 60625 2700.00000 0 -4221456.107 10048946.525 23099717.676 10 0 60625 3600.00000 0 -6708557.676 8677101.339 23062386.644 10 0 60625 4500.00000 0 -9261670.076 7505711.456 22578742.309 10 0 60625 5400.00000 0 -11814407.146 6556661.866 21657880.556 10 0 60625 6300.00000 0 -14298238.466 5839631.895 20317351.434 10 0 60625 7200.00000 0 -16645140.256 5351837.956 18582845.132 10 0 60625 8100.00000 0 -18790244.746 5078310.507 16487721.036 10 0 60625 9000.00000 0 -20674378.829 4992695.028 14072386.647 10 0 60625 9900.00000 0 -22246386.380 5058545.016 11383536.089 10 0 60625 10800.00000 0 -23465136.648 5231054.038 8473260.975 10 0 60625 11700.00000 0 -24301133.378 5459154.912 5398049.305 10 0 60625 12600.00000 0 -24737655.330 5687897.863 2217690.982 10 0 60625 13500.00000 0 -24771378.230 5861006.821 -1005889.026 10 0 60625 14400.00000 0 -24412449.915 5923504.577 -4209846.662 10 0 60625 15300.00000 0 -23684013.772 5824293.783 -7331659.025 10 0 60625 16200.00000 0 -22621199.347 5518581.959 -10310363.014 10 0 60625 17100.00000 0 -21269622.155 4970044.940 -13087766.217 10 0 60625 18000.00000 0 -19683456.224 4152634.127 -15609604.162 10 0 60625 18900.00000 0 -17923161.517 3051948.238 -17826619.273 10 0 60625 19800.00000 0 -16052963.498 1666109.062 -19695538.601 10 0 60625 20700.00000 0 -14138192.723 6102.335 -21179929.799 10 0 60625 21600.00000 0 -12242598.229 -1904431.912 -22250917.682 10 0 60625 22500.00000 0 -10425749.231 -4029951.289 -22887747.044 10 0 60625 23400.00000 0 -8740635.375 -6324273.653 -23078180.880 10 0 60625 24300.00000 0 -7231566.714 -8732296.839 -22818726.911 10 0 60625 25200.00000 0 -5932461.130 -11192102.637 -22114689.028 10 0 60625 26100.00000 0 -4865589.881 -13637355.963 -20980044.016 10 0 60625 27000.00000 0 -4040831.959 -15999897.979 -19437147.456 10 0 60625 27900.00000 0 -3455465.976 -18212424.243 -17516276.137 10 0 60625 28800.00000 0 -3094505.379 -20211135.732 -15255017.454 10 0 60625 29700.00000 0 -2931559.752 -21938252.373 -12697519.164 10 0 60625 30600.00000 0 -2930182.923 -23344284.969 -9893615.342 10 0 60625 31500.00000 0 -3045648.379 -24389971.981 -6897846.653 10 0 60625 32400.00000 0 -3227074.963 -25047802.125 -3768394.737 10 0 60625 33300.00000 0 -3419811.617 -25303061.308 -565951.877 10 0 60625 34200.00000 0 -3567979.744 -25154362.435 2647451.966 10 0 60625 35100.00000 0 -3617065.711 -24613638.226 5809642.246 10 0 60625 36000.00000 0 -3516454.592 -23705599.308 8859490.586 10 0 60625 36900.00000 0 -3221799.183 -22466681.809 11738081.068 10 0 60625 37800.00000 0 -2697125.612 -20943529.363 14389830.847 10 0 60625 38700.00000 0 -1916588.042 -19191073.188 16763544.991 10 0 60625 39600.00000 0 -865799.601 -17270289.907 18813386.877 10 0 60625 40500.00000 0 457315.904 -15245729.516 20499747.189 10 0 60625 41400.00000 0 2042187.404 -13182914.841 21789996.407 10 0 60625 42300.00000 0 3865790.137 -11145718.800 22659107.641 10 0 60625 43200.00000 0 5893363.020 -9193826.492 23090138.814 10 0 60625 44100.00000 0 8079622.265 -7380385.678 23074565.352 10 0 60625 45000.00000 0 10370423.553 -5749941.724 22612456.836 10 0 60625 45900.00000 0 12704806.726 -4336741.765 21712493.470 10 0 60625 46800.00000 0 15017341.044 -3163478.114 20391820.677 10 0 60625 47700.00000 0 17240676.237 -2240523.416 18675742.834 10 0 60625 48600.00000 0 19308195.415 -1565690.099 16597259.826 10 0 60625 49500.00000 0 21156660.800 -1124525.304 14196453.067 10 0 60625 50400.00000 0 22728742.492 -891130.276 11519730.571 10 0 60625 51300.00000 0 23975324.311 -829471.175 8618943.684 10 0 60625 52200.00000 0 24857489.087 -895127.265 5550391.038 10 0 60625 53100.00000 0 25348098.326 -1037403.394 2373728.154 10 0 60625 54000.00000 0 25432897.756 -1201717.578 -849196.362 10 0 60625 54900.00000 0 25111099.860 -1332161.931 -4055554.916 10 0 60625 55800.00000 0 24395416.733 -1374127.041 -7182780.531 10 0 60625 56700.00000 0 23311540.063 -1276876.446 -10169806.126 10 0 60625 57600.00000 0 21897089.047 -995959.512 -12958277.303 10 0 60625 58500.00000 0 20200070.161 -495357.577 -15493712.776 10 0 60625 59400.00000 0 18276914.000 250730.368 -17726587.690 10 0 60625 60300.00000 0 16190172.841 1256540.631 -19613316.809 10 0 60625 61200.00000 0 14005977.228 2523895.488 -21117116.906 10 0 60625 62100.00000 0 11791360.141 4041888.948 -22208730.535 10 0 60625 63000.00000 0 9611562.697 5787121.738 -22866996.691 10 0 60625 63900.00000 0 7527435.680 7724475.830 -23079257.300 10 0 60625 64800.00000 0 5593046.555 9808395.585 -22841592.266 10 0 60625 65700.00000 0 3853592.141 11984620.994 -22158879.502 10 0 60625 66600.00000 0 2343703.592 14192299.301 -21044680.110 10 0 60625 67500.00000 0 1086212.998 16366385.506 -19520952.453 10 0 60625 68400.00000 0 91430.918 18440230.376 -17617602.275 10 0 60625 69300.00000 0 -643037.740 20348247.062 -15371879.207 10 0 60625 70200.00000 0 -1131935.065 22028544.646 -12827632.888 10 0 60625 71100.00000 0 -1401467.068 23425418.827 -10034444.446 10 0 60625 72000.00000 0 -1487936.476 24491596.469 -7046651.356 10 0 60625 72900.00000 0 -1435951.706 25190141.467 -3922285.416 10 0 60625 73800.00000 0 -1296289.598 25495943.997 -721944.950 10 0 60625 74700.00000 0 -1123503.489 25396732.808 2492376.683 10 0 60625 75600.00000 0 -973378.196 24893570.245 5658483.786 10 0 60625 76500.00000 0 -900339.242 24000811.228 8715169.741 10 0 60625 77400.00000 0 -954924.985 22745529.391 11603384.993 10 0 60625 78300.00000 0 -1181427.161 21166435.436 14267360.336 10 0 60625 79200.00000 0 -1615798.020 19312333.214 16655665.351 10 0 60625 80100.00000 0 -2283910.934 17240177.655 18722183.253 10 0 60625 81000.00000 0 -3200246.754 15012814.478 20426985.113 10 0 60625 81900.00000 0 -4367060.734 12696494.196 21737088.241 10 0 60625 82800.00000 0 -5774065.315 10358261.824 22627085.516 10 0 60625 83700.00000 0 -7398643.205 8063328.528 23079634.539 10 0 60625 84600.00000 0 -9206583.750 5872532.147 23085797.676 10 0 60625 85500.00000 0 -11153314.368 3839990.057 22645226.342 10 0 60626 0.00000 0 -13185578.476 2011040.432 21766185.343 10 0 60626 900.00000 0 -15243494.152 420555.508 20465414.956 10 0 60626 1800.00000 0 -17262907.968 -908300.955 18767832.850 10 0 60626 2700.00000 0 -19177952.014 -1964823.258 16706077.890 10 0 60626 3600.00000 0 -20923696.618 -2750985.864 14319903.356 10 0 60626 4500.00000 0 -22438790.011 -3281128.590 11655428.632 10 0 60626 5400.00000 0 -23667974.490 -3581116.669 8764261.915 10 0 60626 6300.00000 0 -24564372.833 -3687009.783 5702509.301 10 0 60626 7200.00000 0 -25091447.428 -3643295.294 2529688.597 10 0 60626 8100.00000 0 -25224547.607 -3500759.895 -692431.362 10 0 60626 9000.00000 0 -24951977.568 -3314090.024 -3901042.875 10 0 60626 9900.00000 0 -24275537.383 -3139303.669 -7033538.272 10 0 60626 10800.00000 0 -23210512.026 -3031124.121 -10028749.769 10 0 60626 11700.00000 0 -21785107.133 -3040409.286 -12828164.121 10 0 60626 12600.00000 0 -20039354.224 -3211748.180 -15377086.151 10 0 60626 13500.00000 0 -18023531.182 -3581329.198 -17625726.350 10 0 60626 14400.00000 0 -15796164.871 -4175173.040 -19530189.427 10 0 60626 15300.00000 0 -13421700.910 -5007807.314 -21053343.010 10 0 60626 16200.00000 0 -10967939.830 -6081440.506 -22165548.568 10 0 60626 17100.00000 0 -8503348.670 -7385671.269 -22845239.849 10 0 60626 18000.00000 0 -6094362.021 -8897745.657 -23079337.648 10 0 60626 18900.00000 0 -3802786.467 -10583351.274 -22863493.402 10 0 60626 19800.00000 0 -1683417.301 -12397914.226 -22202157.871 10 0 60626 20700.00000 0 218033.204 -14288343.353 -21108474.862 10 0 60626 21600.00000 0 1866610.587 -16195147.317 -19604003.558 10 0 60626 22500.00000 0 3239328.028 -18054834.639 -17718276.441 10 0 60626 23400.00000 0 4325863.220 -19802495.104 -15488202.986 10 0 60626 24300.00000 0 5128716.273 -21374453.802 -12957332.230 10 0 60626 25200.00000 0 5662825.419 -22710886.512 -10174989.846 10 0 60626 26100.00000 0 5954660.051 -23758287.238 -7195307.648 10 0 60626 27000.00000 0 6040832.341 -24471685.437 -4076165.195 10 0 60626 27900.00000 0 5966288.527 -24816521.411 -878064.571 10 0 60626 28800.00000 0 5782158.012 -24770102.913 2337039.627 10 0 60626 29700.00000 0 5543352.180 -24322583.787 5506932.571 10 0 60626 30600.00000 0 5306014.624 -23477425.398 8570331.297 10 0 60626 31500.00000 0 5124930.029 -22251323.041 11468054.377 10 0 60626 32400.00000 0 5051000.100 -20673601.466 14144147.882 10 0 60626 33300.00000 0 5128891.661 -18785105.236 16546947.415 10 0 60626 34200.00000 0 5394954.616 -16636630.039 18630057.393 10 0 60626 35100.00000 0 5875496.077 -14286959.428 20353230.457 10 0 60626 36000.00000 0 6585482.386 -11800587.172 21683131.755 10 0 60626 36900.00000 0 7527723.213 -9245217.919 22593974.734 10 0 60626 37800.00000 0 8692572.465 -6689147.590 23068017.252 10 0 60626 38700.00000 0 10058159.750 -4198629.793 23095908.994 10 0 60626 39600.00000 0 11591144.769 -1835335.192 22676883.376 10 0 60626 40500.00000 0 13247965.624 345992.700 21818789.590 10 0 60626 41400.00000 0 14976531.890 2299589.484 20537962.871 10 0 60626 42300.00000 0 16718294.648 3990345.128 18858933.686 10 0 60626 43200.00000 0 18410609.763 5395032.966 16813979.308 10 0 60626 44100.00000 0 19989297.833 6503040.796 14442524.100 10 0 60626 45000.00000 0 21391295.112 7316572.614 11790397.808 10 0 60626 45900.00000 0 22557284.921 7850311.337 8908964.194 10 0 60626 46800.00000 0 23434198.765 8130555.486 5854135.257 10 0 60626 47700.00000 0 23977480.775 8193865.048 2685289.222 10 0 60626 48600.00000 0 24153018.236 8085273.037 -535887.004 10 0 60626 49500.00000 0 23938654.385 7856138.231 -3746608.004 10 0 60626 50400.00000 0 23325216.981 7561730.579 -6884227.976 10 0 60626 51300.00000 0 22317016.674 7258652.847 -9887481.093 10 0 60626 52200.00000 0 20931791.874 7002209.701 -12697697.927 10 0 60626 53100.00000 0 19200100.752 6843838.106 -15259972.013 10 0 60626 54000.00000 0 17164185.042 6828710.515 -17524251.673 10 0 60626 54900.00000 0 14876353.223 6993614.928 -19446333.899 10 0 60626 55800.00000 0 12396951.528 7365203.822 -20988739.364 10 0 60626 56700.00000 0 9792008.970 7958687.805 -22121450.449 10 0 60626 57600.00000 0 7130656.367 8777030.371 -22822497.452 10 0 60626 58500.00000 0 4482428.822 9810678.251 -23078381.573 10 0 60626 59400.00000 0 1914565.587 11037838.603 -22884326.999 10 0 60626 60300.00000 0 -510579.249 12425290.661 -22244358.162 10 0 60626 61200.00000 0 -2737907.056 13929696.590 -21171201.950 10 0 60626 62100.00000 0 -4721627.740 15499355.062 -19686018.254 10 0 60626 63000.00000 0 -6426911.446 17076322.495 -17817965.679 10 0 60626 63900.00000 0 -7831072.095 18598811.578 -15603612.455 10 0 60626 64800.00000 0 -8924236.176 20003765.403 -13086205.487 10 0 60626 65700.00000 0 -9709472.080 21229498.623 -10314813.085 10 0 60626 66600.00000 0 -10202377.964 22218294.688 -7343359.177 10 0 60626 67500.00000 0 -10430148.815 22918850.634 -4229568.618 10 0 60626 68400.00000 0 -10430164.900 23288467.737 -1033844.597 10 0 60626 69300.00000 0 -10248163.439 23294897.437 2181899.819 10 0 60626 70200.00000 0 -9936072.185 22917766.619 5355433.528 10 0 60626 71100.00000 0 -9549597.167 22149524.088 8425400.088 10 0 60626 72000.00000 0 -9145666.342 20995870.017 11332489.061 10 0 60626 72900.00000 0 -8779836.367 19475651.457 14020564.603 10 0 60626 73800.00000 0 -8503770.608 17620228.835 16437731.053 10 0 60626 74700.00000 0 -8362893.146 15472339.822 18537316.613 10 0 60626 75600.00000 0 -8394315.971 13084507.151 20278757.930 10 0 60626 76500.00000 0 -8625125.214 10517055.228 21628370.213 10 0 60626 77400.00000 0 -9071097.504 7835816.002 22559989.452 10 0 60626 78300.00000 0 -9735900.119 5109616.927 23055475.442 10 0 60626 79200.00000 0 -10610808.985 2407652.612 23105066.490 10 0 60626 80100.00000 0 -11674957.666 -203153.418 22707578.899 10 0 60626 81000.00000 0 -12896108.922 -2660689.779 21870446.754 10 0 60626 81900.00000 0 -14231919.104 -4909997.583 20609599.969 10 0 60626 82800.00000 0 -15631645.229 -6905314.145 18949181.197 10 0 60626 83700.00000 0 -17038226.064 -8611735.668 16921104.899 10 0 60626 84600.00000 0 -18390652.471 -10006429.571 14564464.776 10 0 60626 85500.00000 0 -19626529.450 -11079345.169 11924798.716 99